Location: ?astrovice
(49.6513°N, 14.9287°E)
Time: 09:21:11
(UTC+00:00)

STARLINK-1245 - Pass Details

Date: 09 April 2020
Orbit: 549 x 550 km, 53.0° (Epoch: 25 May)

Event Time Altitude Azimuth Distance (km) Brightness Sun altitude
Rises 18:27:21 0° 293° (WNW) 2,720 9.9 -7.4°
Reaches altitude 10° 18:29:37 10° 289° (WNW) 1,824 8.1 -7.7°
Maximum altitude 18:33:41 56° 211° (SSW) 658 4.1 -8.3°
Enters shadow 18:37:40 10° 134° (SE) 1,799 5.6 -8.9°
